Weather History for Port Hope, MI

Change the Weather History Date:

Friday, May 24, 2013

  Actual Average Record
Temperature  
Mean Temperature 42 °F -  
Max Temperature 46 °F 57 °F 88 °F (2007)
Min Temperature 37 °F 44 °F 37 °F (2013)
Degree Days  
Heating Degree Days 24    
Moisture  
Dew Point 32 °F    
Average Humidity 69    
Maximum Humidity 83    
Minimum Humidity 58    
Precipitation  
Precipitation 0.00 in - - ()
Sea Level Pressure  
Sea Level Pressure 30.32 in    
Wind  
Wind Speed 11 mph (North)    
Max Wind Speed 18 mph    
Max Gust Speed 26 mph    
Averages and records for this station are not official NWS values.
T = Trace of Precipitation, MM = Missing Value Source: NWS Daily Summary

Daily Weather History Graph

Daily Weather History Graph

Search for Another Location

Airport:

Trip Planner

Search our weather history database for the weather conditions in past years. The results will help you decide how hot, cold, wet, or windy it might be!

Date:

Astronomy

May. 24, 2013 Rise Set
Actual Time 5:56 AM EDT 9:00 PM EDT
Civil Twilight 5:21 AM EDT 9:34 PM EDT
Nautical Twilight 4:37 AM EDT 10:19 PM EDT
Astronomical Twilight 3:44 AM EDT 11:12 PM EDT
Moon 8:40 PM EDT (5/24) 5:29 AM EDT (5/24)
Length of Visible Light 16h 13m
Length of Day
15h 03m
Full, 100% of the Moon is Illuminated
May 24
Full
May 25
Full
May 31
Last Quarter
Jun 8
New
Jun 16
First Quarter

Hourly Weather History & Observations

Time (EDT) Temp. Windchill Dew Point Humidity Pressure Visibility Wind Dir Wind Speed Gust Speed Precip Events Conditions
12:51 AM 43.0 °F 34.8 °F 35.1 °F 74% 30.18 in - NNE 18.4 mph 26.5 mph N/A   Unknown
1:51 AM 42.1 °F 33.9 °F 34.0 °F 73% 30.20 in - North 17.3 mph 24.2 mph N/A   Unknown
2:51 AM 41.0 °F 35.2 °F 34.0 °F 76% 30.21 in - North 9.2 mph 21.9 mph N/A   Unknown
3:51 AM 41.0 °F 33.1 °F 32.0 °F 70% 30.22 in - North 15.0 mph 26.5 mph N/A   Unknown
4:51 AM 39.9 °F 32.1 °F 30.9 °F 70% 30.24 in - North 13.8 mph 20.7 mph N/A   Unknown
5:51 AM 39.9 °F 33.9 °F 30.0 °F 68% 30.26 in - North 9.2 mph 21.9 mph N/A   Unknown
6:51 AM 39.9 °F 33.9 °F 30.0 °F 68% 30.28 in - North 9.2 mph 23.0 mph N/A   Unknown
7:51 AM 39.0 °F 31.4 °F 30.0 °F 70% 30.30 in - North 12.7 mph 20.7 mph N/A   Unknown
8:51 AM 39.0 °F 30.6 °F 30.0 °F 70% 30.33 in - North 15.0 mph 21.9 mph N/A   Unknown
9:51 AM 39.9 °F 34.5 °F 30.0 °F 68% 30.35 in - North 8.1 mph 17.3 mph N/A   Unknown
10:51 AM 39.9 °F 32.5 °F 30.0 °F 68% 30.36 in - North 12.7 mph 21.9 mph N/A   Unknown
11:51 AM 41.0 °F 33.9 °F 30.9 °F 67% 30.37 in - North 12.7 mph 20.7 mph N/A   Unknown
12:51 PM 43.0 °F 39.5 °F 30.0 °F 60% 30.38 in - Variable 5.8 mph 19.6 mph N/A   Unknown
1:51 PM 46.0 °F 43.9 °F 34.0 °F 63% 30.39 in - Variable 4.6 mph - N/A   Unknown
2:51 PM 46.0 °F 44.8 °F 34.0 °F 63% 30.39 in - NNW 3.5 mph - N/A   Unknown
3:51 PM 44.1 °F 38.1 °F 32.0 °F 63% 30.38 in - NNE 11.5 mph - N/A   Unknown
4:51 PM 44.1 °F 40.1 °F 32.0 °F 63% 30.38 in - North 6.9 mph - N/A   Unknown
5:51 PM 44.1 °F 40.1 °F 30.9 °F 60% 30.37 in - NNE 6.9 mph - N/A   Unknown
6:51 PM 44.1 °F 41.5 °F 30.0 °F 58% 30.35 in - NNE 4.6 mph - N/A   Unknown
7:51 PM 43.0 °F 40.3 °F 30.0 °F 60% 30.34 in - East 4.6 mph - N/A   Unknown
8:51 PM 41.0 °F - 32.0 °F 70% 30.33 in - Calm Calm - N/A   Unknown
9:51 PM 37.9 °F 35.5 °F 33.1 °F 83% 30.34 in - SW 3.5 mph - N/A   Unknown
10:51 PM 37.9 °F 35.5 °F 33.1 °F 83% 30.34 in - SSW 3.5 mph - N/A   Unknown
11:51 PM 37.0 °F 34.5 °F 32.0 °F 82% 30.35 in - SW 3.5 mph - N/A   Unknown